Location: Lake of the Woods (North-East)
(49.6672°N, 94.8656°W)
Time: 14:06:08
(UTC-05:00)

Daily predictions for brighter satellites

Satellite Brightness Start Highest point End
(mag) Time Altitude Azimuth Time Altitude Azimuth Time Altitude Azimuth
YAOGAN 6 3.7 20:57:54 10° SE 21:01:05 29° ENE 21:04:16 10° N
Cosmos 2263 Rocket 2.5 20:56:50 10° NNW 21:02:19 54° NE 21:07:47 10° SE
Cosmos 220 Rocket 4.1 21:02:59 10° NNW 21:07:28 87° WSW 21:11:56 10° SSE
SPOT 5 4.2 21:04:47 10° ESE 21:08:35 24° ENE 21:12:14 10° N
Cosmos 1315 Rocket 3.6 21:05:01 10° NNW 21:09:02 55° W 21:12:59 10° S
BREEZE-M DEB (TANK) 4.1 21:06:37 10° W 21:11:01 68° S 21:28:29 10° ESE
Cosmos 2142 Rocket 4.5 21:04:59 10° S 21:11:02 66° E 21:17:10 10° NNE
Cosmos 2322 Rocket 2.6 21:06:38 10° S 21:11:48 40° ESE 21:17:01 10° NE
Envisat 3.0 21:08:31 10° SSE 21:13:36 84° ENE 21:18:43 10° NNW
Cosmos 1302 Rocket 4.0 21:09:25 10° SSW 21:14:36 86° ESE 21:19:51 10° NNE
Cosmos 1933 4.2 21:13:10 10° SSE 21:16:42 30° E 21:20:14 10° NNE
BREEZE-M DEB (TANK) 3.6 21:18:26 10° WSW 21:21:36 55° SSE 21:30:06 10° E
Cosmos 1825 2.2 21:18:12 10° N 21:22:02 90° WSW 21:25:50 10° S
Cosmos 2360 Rocket 3.4 21:18:27 10° SSE 21:22:31 21° E 21:26:37 10° NE
Cosmos 1980 Rocket 2.5 21:17:15 10° SW 21:22:56 73° WNW 21:28:41 10° NNE
Cosmos 2026 Rocket 4.1 21:18:54 10° N 21:25:13 88° W 21:31:23 10° S
Cosmos 1908 Rocket 4.3 21:21:20 10° N 21:25:19 34° ENE 21:28:49 12° SE
H-2A R/B 4.2 21:24:45 10° E 21:26:47 13° NE 21:28:49 10° NNE
USA 234 3.8 21:23:22 10° SE 21:29:45 54° SW 21:36:09 10° WNW
Cosmos 1862 3.3 21:31:42 10° N 21:35:44 88° E 21:39:47 10° S
Helios 1B rocket 2.6 21:34:09 10° NNE 21:38:16 80° WNW 21:42:22 10° SSW
SL-16 R/B 2.2 21:33:51 10° SSW 21:39:25 62° ESE 21:45:02 10° NE
USA 186 4.2 21:37:29 10° SW 21:39:34 19° W 21:41:47 10° NW
Lacrosse 4 Rocket 2.4 21:36:34 10° NW 21:40:41 45° WSW 21:44:52 10° S
ATLAS 5 CENTAUR R/B 2.4 21:36:38 10° NW 21:42:29 81° NE 21:47:45 16° SE
Okean 2 Rocket 4.4 21:38:44 10° NNE 21:42:30 25° ENE 21:45:00 16° ESE
SPOT 1/Viking Rocket 4.4 21:40:21 15° SE 21:44:09 36° ENE 21:48:54 10° N
Cosmos 1733 Rocket 3.3 21:41:43 10° NNW 21:46:09 72° W 21:50:35 10° S
MetOp-B 4.3 21:42:10 13° SSE 21:46:51 61° ENE 21:52:08 10° N
ERS-1 Rocket 2.9 21:42:14 10° SSE 21:47:15 85° ENE 21:52:19 10° NNW
Cosmos 1939 Rocket 3.7 21:45:45 10° S 21:49:41 49° W 21:53:36 10° NNW
Intercosmos 25 Rocket 3.5 21:46:38 10° SSW 21:49:53 71° WNW 21:54:17 10° N
Cosmos 1655 Rocket 4.3 21:45:57 10° NNW 21:52:20 71° W 21:58:39 10° S
Cosmos 2278 Rocket 3.9 21:51:30 10° N 21:55:50 22° NE 22:00:07 10° E
Cosmos 1862 Rocket 3.6 21:52:30 10° S 21:56:58 87° E 22:01:30 10° N
Cosmos 1408 4.2 21:53:36 10° NNW 21:56:58 33° W 22:00:18 10° SSW
ARGOS 3.3 21:52:59 17° SE 21:57:04 58° ENE 22:02:21 10° N
SeaSat 1 2.5 21:57:02 19° SE 22:00:36 77° ENE 22:05:34 10° NNW
CENTAUR R/B 3.9 21:57:34 10° WSW 22:03:43 45° NNW 22:10:44 10° NE
Meteor 1-26 Rocket 4.4 21:58:32 10° S 22:04:02 54° E 22:09:42 10° NNE
Cosmos 1844 Rocket 3.3 22:00:20 10° NNW 22:05:38 42° NE 22:09:04 20° ESE
Cosmos 1992 Rocket 3.9 22:01:55 10° SSW 22:07:09 83° ESE 22:12:26 10° NNE
Abrixas rocket 2.2 22:03:55 10° WSW 22:07:10 59° SSE 22:08:39 28° E
Okean 1-7 3.8 22:07:56 25° SE 22:09:37 33° E 22:13:35 10° NNE
Terra 3.0 22:10:04 20° ESE 22:12:15 29° ENE 22:16:22 10° N
SL-08 RB Rocket 3.8 22:09:48 24° SE 22:12:30 61° ENE 22:17:01 10° N
USA 229 DEB 4.2 22:06:46 10° S 22:12:47 35° ESE 22:18:55 10° NE
USA 229 4.2 22:06:52 10° S 22:12:52 34° ESE 22:18:59 10° NE
Cosmos 2266 Rocket 4.0 22:06:59 10° N 22:13:16 79° E 22:18:12 18° SSE
Atlas Centaur 2 4.3 22:09:26 10° SSW 22:13:46 16° SSE 22:14:12 16° SSE
Cosmos 1703 Rocket 3.7 22:14:11 21° SSE 22:16:57 56° E 22:21:18 10° NNE
YAOGAN 11 4.2 22:13:55 20° S 22:16:59 78° WSW 22:21:21 10° NNW
Cosmos 2221 Rocket 3.8 22:21:33 28° SSE 22:23:31 50° E 22:27:49 10° NNE
CZ-4C R/B 3.5 22:20:02 10° NW 22:26:26 44° NNE 22:32:09 16° E
MOS 1-B Rocket 3.8 22:22:53 21° SSE 22:27:04 90° E 22:32:43 10° NNW
Cosmos 2219 Rocket 3.6 22:28:37 18° E 22:28:37 18° E 22:32:05 10° ENE
Cosmos 1867 3.9 22:24:22 10° NW 22:29:46 61° WSW 22:32:45 26° SSE
CARTOSAT-1 4.2 22:32:33 31° ESE 22:33:53 40° ENE 22:37:58 10° N
Meteor 1-14 Rocket 4.3 22:28:51 10° NNW 22:34:29 75° W 22:38:21 21° S
USA 267 4.0 22:29:00 10° ENE 22:35:20 55° NNW 22:41:41 10° W
H-2A R/B 1.9 22:33:27 30° SSE 22:35:56 76° ENE 22:40:53 10° NNW
Cosmos 2084 4.5 22:34:19 10° NNW 22:37:47 32° NE 22:39:19 24° ENE
Cosmos 968 Rocket 4.2 22:38:48 10° NNW 22:43:47 48° WSW 22:46:52 22° S
ASTEX 1 3.9 22:43:30 34° ESE 22:45:05 46° ENE 22:49:51 10° N
Cosmos 2237 4.4 22:42:03 25° S 22:45:08 52° ESE 22:50:41 10° NE
Cosmos 2263 Rocket 3.7 22:41:15 10° NW 22:45:57 29° WSW 22:50:09 12° SSW
SPOT 5 3.4 22:43:25 22° S 22:46:23 53° WSW 22:50:57 10° NNW
Geosat 4.4 22:45:15 10° NE 22:49:57 38° ESE 22:50:29 37° SE
Meteor 1-25 Rocket 4.3 22:44:30 10° NNW 22:50:07 76° W 22:53:06 28° S
COSMOS 2428 2.9 22:52:07 35° SSE 22:53:55 47° ESE 22:59:22 10° NE
Meteor 2-10 Rocket 4.3 22:48:13 10° SSW 22:53:57 58° WNW 22:59:40 10° N
Cosmos 2322 Rocket 3.5 22:50:33 10° WSW 22:55:51 42° NW 23:01:12 10° NNE
ATLAS 3B R/B 4.3 22:51:32 10° NW 22:57:35 29° NNE 23:03:22 10° ENE
CZ-4C R/B 4.3 23:00:34 32° ENE 23:00:40 32° ENE 23:04:00 10° N
CZ-4B R/B 4.2 22:56:55 10° NNE 23:01:06 32° E 23:01:06 32° E
H-2A R/B 1.9 23:01:06 53° SSE 23:02:05 89° E 23:06:28 10° NNW
Cosmos 2360 Rocket 2.3 23:00:15 10° SW 23:05:55 75° WNW 23:11:38 10° NNE
Cosmos 1844 3.6 23:02:35 10° NNW 23:08:20 86° ENE 23:10:13 44° SSE
PSLV R/B 4.0 23:09:08 42° N 23:09:08 42° N 23:11:10 10° N
Cosmos 1606 2.5 23:14:02 77° E 23:14:02 77° E 23:17:46 10° NNE
Cosmos 2322 3.8 23:08:15 10° SW 23:13:58 75° WNW 23:19:43 10° NNE
CRYOSAT 2 4.5 23:13:51 51° SE 23:14:47 61° E 23:19:36 10° N
SL-16 R/B 4.4 23:19:13 11° E 23:19:13 11° E 23:19:50 10° ENE
S3M 4.1 23:16:52 42° SE 23:18:36 56° E 23:24:39 10° NNE
IGS 5A 3.4 23:18:47 66° SSW 23:19:18 79° WSW 23:23:28 10° NNW
Cosmos 1937 Rocket 4.5 23:15:34 10° N 23:20:28 36° NE 23:21:55 31° E
Okean 2 Rocket 4.1 23:16:29 10° NNW 23:20:44 41° W 23:22:22 29° SW
Cosmos 1633 2.5 23:17:46 10° N 23:21:17 81° NNW 23:21:17 81° NNW
SL-16 R/B 4.1 23:19:00 10° WSW 23:23:57 30° NW 23:28:55 10° NNE
Meteor 2-6 Rocket 4.3 23:22:10 40° S 23:24:28 83° E 23:30:28 10° NNE
Cosmos 1300 Rocket 3.5 23:20:59 10° N 23:25:19 64° ENE 23:25:30 63° E
ATLAS 5 CENTAUR R/B 3.9 23:21:58 10° WNW 23:26:49 26° WSW 23:29:19 20° SSW
Cosmos 1782 3.2 23:29:11 50° WSW 23:29:51 59° WNW 23:33:51 10° N
Cosmos 2333 Rocket 2.5 23:34:09 46° ESE 23:34:20 47° ESE 23:39:51 10° NE
Cosmos 2333 4.1 23:33:39 40° SSW 23:35:49 83° ESE 23:41:38 10° NNE
SeaSat 1 4.4 23:36:49 16° SW 23:38:38 19° WSW 23:42:07 10° WNW
Cosmos 1898 Rocket 3.5 23:34:05 10° NNW 23:39:15 65° ENE 23:40:05 56° ESE
Cosmos 2278 Rocket 2.1 23:35:04 10° NNW 23:40:47 86° ENE 23:41:58 58° SE
Cosmos 2237 Rocket 2.8 23:41:32 39° E 23:41:32 39° E 23:46:28 10° NE
Timation 1 Rocket 4.3 23:38:45 10° NNW 23:44:46 74° ENE 23:46:14 52° SE
deb Chang Zheng 4 3.9 23:43:01 10° N 23:47:24 63° WNW 23:48:09 53° WSW
Cosmos 1745 Rocket 4.0 23:41:58 10° N 23:48:18 81° W 23:50:11 49° S
Cosmos 1844 Rocket 3.5 23:44:22 10° NW 23:49:30 38° WSW 23:50:44 34° SW
Terra 2.6 23:48:56 37° SW 23:49:52 41° W 23:54:24 10° NNW
Cosmos 1346 Rocket 3.0 23:51:31 66° N 23:51:31 66° N 23:55:00 10° N
SL-24 DEB 4.3 23:52:36 62° E 23:52:36 62° E 23:57:13 10° N
Spot 4 3.9 23:52:16 62° SW 23:52:44 67° WSW 23:57:31 10° NNW
Meteor 1-5 Rocket 4.2 23:47:30 10° N 23:53:07 75° ENE 23:54:04 61° SE
Cosmos 1378 Rocket 4.1 23:53:54 48° ENE 23:53:54 48° ENE 23:57:37 10° NNE
